Tracking 17265 objects as of 4-September-2015
HD Live streaming from Space Station

Track Soyuz TMA-18M
and Space Station

COSMOS 2251 DEB

Track COSMOS 2251 DEB now!
10-day predictions
COSMOS 2251 DEB is classified as:


NORAD ID: 34544
Int'l Code: 1993-036UE
Perigee: 780.7 km
Apogee: 1,371.4 km
Inclination: 73.9 °
Period: 106.6 minutes
Semi major axis: 7447 km
RCS: 0.0085 m2 (small)
Launch date: June 16, 1993
Source: Commonwealth of Independent States (former USSR) (CIS)

Note: This is SATELLITE DEBRIS
Your satellite tracking list
Your tracking list is empty





NASA's NSSDC Master Catalog

Two Line Element Set (TLE):
1 34544U 93036UE  15245.85037120 +.00000317 +00000-0 +31888-3 0  9996
2 34544 073.9187 133.6560 0396560 135.0432 345.6956 13.50906630321476

Source of the keplerian elements: AFSPC

N2YO: 372